Moffett Field, CA

1:32 PM PDT on August 29, 2016 (GMT -0700)
Moffett Federal Air Field

Weather History for KNUQ - January, 2013

Change the Weather History Date:

Sunday, January 20, 2013

  Actual Average Record
Temperature  
Mean Temperature 50 °F 51 °F  
Max Temperature 65 °F 59 °F 71 °F (2014)
Min Temperature 34 °F 43 °F 30 °F (1963)
Degree Days  
Heating Degree Days 15    
Month to date heating degree days 376  
Since 1 July heating degree days 1142  
Cooling Degree Days 0    
Month to date cooling degree days 0  
Year to date cooling degree days 0  
Moisture  
Dew Point 35 °F    
Average Humidity 58    
Maximum Humidity 85    
Minimum Humidity 31    
Precipitation  
Precipitation 0.00 in 0.08 in 1.94 in (1964)
Month to date precipitation 0.16 1.87  
Year to date precipitation 0.16 1.87  
Since 1 July precipitation 7.93  
Sea Level Pressure  
Sea Level Pressure 30.21 in    
Wind  
Wind Speed 1 mph (NNW)    
Max Wind Speed 7 mph    
Max Gust Speed 9 mph    
Visibility 10 miles    
Events      
T = Trace of Precipitation, MM = Missing Value Source: NWS Daily Summary

Daily Weather History Graph

Daily Weather History Graph

Search for Another Location

Airport or City:

Trip Planner

Search our weather history database for the weather conditions in past years. The results will help you decide how hot, cold, wet, or windy it might be!

Date:

Astronomy

Jan. 20, 2013 Rise Set
Actual Time 7:19 AM PST 5:19 PM PST
Civil Twilight 6:51 AM PST 5:48 PM PST
Nautical Twilight 6:19 AM PST 6:19 PM PST
Astronomical Twilight 5:48 AM PST 6:50 PM PST
Moon 12:24 PM PST (1/20) 1:57 AM PST (1/20)
Length of Visible Light 10h 56m
Length of Day
10h 00m
Waxing Gibbous, 67% of the Moon is Illuminated
Jan 20
Waxing Gibbous
Jan 26
Full
Feb 3
Last Quarter
Feb 9
New
Feb 17
First Quarter

Hourly Weather History & Observations

Time (PST) Temp. Dew Point Humidity Pressure Visibility Wind Dir Wind Speed Gust Speed Precip Events Conditions
12:56 AM 39.9 °F 36.0 °F 86% 30.24 in 10.0 mi Calm Calm - N/A   Clear
1:56 AM 41.0 °F 36.0 °F 82% 30.25 in 10.0 mi Calm Calm - N/A   Clear
2:56 AM 39.9 °F 35.1 °F 83% 30.25 in 10.0 mi Calm Calm - N/A   Clear
3:56 AM 39.0 °F 34.0 °F 82% 30.24 in 10.0 mi Calm Calm - N/A   Clear
4:56 AM 37.9 °F 34.0 °F 86% 30.24 in 10.0 mi Calm Calm - N/A   Clear
5:56 AM 37.0 °F 33.1 °F 86% 30.23 in 9.0 mi Calm Calm - N/A   Clear
6:56 AM 37.0 °F 33.1 °F 86% 30.23 in 10.0 mi Calm Calm - N/A   Clear
7:56 AM 37.9 °F 34.0 °F 86% 30.24 in 10.0 mi Calm Calm - N/A   Clear
8:56 AM 43.0 °F 37.0 °F 80% 30.25 in 10.0 mi Calm Calm - N/A   Clear
9:56 AM 48.9 °F 39.0 °F 69% 30.26 in 10.0 mi Calm Calm - N/A   Clear
10:56 AM 54.0 °F 37.0 °F 53% 30.24 in 10.0 mi Calm Calm - N/A   Clear
11:56 AM 57.9 °F 39.0 °F 49% 30.21 in 10.0 mi North 4.6 mph - N/A   Clear
12:56 PM 59.0 °F 34.0 °F 39% 30.18 in 10.0 mi North 5.8 mph - N/A   Clear
1:56 PM 63.0 °F 34.0 °F 34% 30.15 in 10.0 mi NNW 4.6 mph - N/A   Clear
2:56 PM 64.0 °F 33.1 °F 31% 30.15 in 10.0 mi Calm Calm - N/A   Clear
3:56 PM 64.0 °F 33.1 °F 31% 30.16 in 10.0 mi Variable 4.6 mph - N/A   Clear
4:56 PM 59.0 °F 36.0 °F 42% 30.16 in 10.0 mi NW 3.5 mph - N/A   Clear
5:56 PM 55.9 °F 37.9 °F 51% 30.16 in 10.0 mi NNW 3.5 mph - N/A   Clear
6:56 PM 53.1 °F 37.9 °F 57% 30.17 in 10.0 mi Calm Calm - N/A   Clear
7:56 PM 48.9 °F 36.0 °F 61% 30.18 in 10.0 mi Calm Calm - N/A   Clear
8:56 PM 48.0 °F 35.1 °F 61% 30.19 in 10.0 mi Calm Calm - N/A   Clear
9:56 PM 44.1 °F 34.0 °F 68% 30.20 in 10.0 mi Calm Calm - N/A   Clear
10:56 PM 44.1 °F 34.0 °F 68% 30.20 in 10.0 mi Calm Calm - N/A   Clear
11:56 PM 41.0 °F 33.1 °F 73% 30.19 in 10.0 mi Calm Calm - N/A   Clear